sat.trackr.live / text

‹ back to catalog

STARLINK-35254

NORAD 65674 · 2025-211Y

PAYLOAD ACTIVE UNKNOWN

§ Identity

Operator
Country
US
Launch date
2025-09-19
Launch site
AFWTR
Launch vehicle
Mass (kg)
RCS (m²)

Purposes: comms

External: N2YO · Heavens-Above · Gunter

§ Orbital elements

Epoch: 2026-05-25T03:43:05.494080Z

Period
95.64 min
Inclination
97.4464°
Eccentricity
0.0001823
Mean motion
15.05603354 rev/d
Perigee alt
548.4 km
Apogee alt
550.9 km
Semi-major
6,927.8 km
B*
-1.4689e-3
RAAN
189.1632°
Arg perigee
113.6052°
Mean anomaly
246.5367°
Rev number
3,855

§ Raw data

STARLINK-352541 65674U 25211Y   26145.15492470 -.00021164  00000+0 -14689-2 0  99942 65674  97.4464 189.1632 0001823 113.6052 246.5367 15.05603354 38552

JSON: /api/v1/satellites/65674 · /tle

For live sub-satellite position, see the globe view (requires WebGL).

§ Visibility from observer

Set your observer location to see the next 7 days of passes ≥ 10°. The values pass through the URL so the page stays shareable.

No JS? Fill the form by hand. The geolocation button needs JavaScript.